Location: Proctor
(47.8934°N, 114.3048°W)
Time: 18:27:10
(UTC+00:00)

Transit 4A - Pass Details

Date: 21 May 2025
Orbit: 866 x 975 km, 66.8° (Epoch: 13 June)

Event Time Altitude Azimuth Distance (km) Brightness Sun altitude
Rises 08:16:21 0° 325° (NW) 3,609 11.6 -21.2°
Reaches altitude 10° 08:19:32 10° 339° (NNW) 2,642 11.1 -21.1°
Maximum altitude 08:24:16 23° 30° (NNE) 1,862 10.3 -20.9°
Drops below altitude 10° 08:28:53 10° 81° (E) 2,576 10.5 -20.7°
Sets 08:31:56 0° 96° (E) 3,495 11.0 -20.6°
